Location: Shepherdstown, WV
(39.4326°N, 77.8042°W)
Time: 02:06:56
(UTC-04:00)

Vanguard 1 - Pass Details

Date: 04 October 2021
Orbit: 653 x 3829 km, 34.2° (Epoch: 18 October)

Event Time Altitude Azimuth Distance (km) Brightness Sun altitude
Rises 00:10:02 0° 283° (WNW) 6,809 14.6 -53.2°
Reaches altitude 10° 00:14:26 10° 277° (W) 6,126 14.2 -53.5°
Enters shadow 00:26:00 36° 249° (WSW) 4,892 13.3 -54.2°
